Time,TemperatureF,DewpointF,PressureIn,WindDirection,WindDirectionDegrees,WindSpeedMPH,WindSpeedGustMPH,Humidity,HourlyPrecipIn,Conditions,Clouds,dailyrainin,SoftwareType,DateUTC
2013-01-18 00:03:00,22.0,19.0,-100.00,NE,34,0.0,1.0,86,-99.99,,,-99.99,,2013-01-18 05:03:00,
2013-01-18 00:12:00,23.0,19.0,-100.00,NNE,21,1.0,3.0,84,-99.99,,,-99.99,,2013-01-18 05:12:00,
2013-01-18 00:22:00,23.0,19.0,-100.00,NNE,21,1.0,3.0,84,-99.99,,,-99.99,,2013-01-18 05:22:00,
2013-01-18 00:33:00,19.0,17.0,-100.00,East,90,0.0,2.0,93,-99.99,,,-99.99,,2013-01-18 05:33:00,
2013-01-18 00:42:00,19.0,17.0,-100.00,East,90,0.0,2.0,93,-99.99,,,-99.99,,2013-01-18 05:42:00,
2013-01-18 00:53:00,17.0,16.0,-100.00,SE,143,0.0,2.0,96,-99.99,,,-99.99,,2013-01-18 05:53:00,
2013-01-18 01:02:00,17.0,16.0,-100.00,SE,143,0.0,2.0,96,-99.99,,,-99.99,,2013-01-18 06:02:00,
2013-01-18 01:12:00,19.0,17.0,-100.00,East,89,1.0,2.0,94,-99.99,,,-99.99,,2013-01-18 06:12:00,
2013-01-18 01:22:00,19.0,17.0,-100.00,East,89,1.0,2.0,94,-99.99,,,-99.99,,2013-01-18 06:22:00,
2013-01-18 01:32:00,18.0,17.0,-100.00,ESE,102,2.0,4.0,94,-99.99,,,-99.99,,2013-01-18 06:32:00,
2013-01-18 01:42:00,18.0,17.0,-100.00,ESE,102,2.0,4.0,94,-99.99,,,-99.99,,2013-01-18 06:42:00,
2013-01-18 01:52:00,19.0,16.0,-100.00,ESE,107,2.0,4.0,89,-99.99,,,-99.99,,2013-01-18 06:52:00,
2013-01-18 02:02:00,19.0,16.0,-100.00,ESE,107,2.0,4.0,89,-99.99,,,-99.99,,2013-01-18 07:02:00,
2013-01-18 02:12:00,18.0,14.0,-100.00,East,85,0.0,2.0,86,-99.99,,,-99.99,,2013-01-18 07:12:00,
2013-01-18 02:22:00,18.0,14.0,-100.00,East,85,0.0,2.0,86,-99.99,,,-99.99,,2013-01-18 07:22:00,
2013-01-18 02:32:00,15.0,14.0,-100.00,ENE,76,0.0,1.0,96,-99.99,,,-99.99,,2013-01-18 07:32:00,
2013-01-18 02:42:00,15.0,14.0,-100.00,ENE,76,0.0,1.0,96,-99.99,,,-99.99,,2013-01-18 07:42:00,
2013-01-18 02:52:00,16.0,15.0,-100.00,East,86,2.0,4.0,96,-99.99,,,-99.99,,2013-01-18 07:52:00,
2013-01-18 03:02:00,16.0,15.0,-100.00,East,86,2.0,4.0,96,-99.99,,,-99.99,,2013-01-18 08:02:00,
2013-01-18 03:11:00,16.0,14.0,-100.00,ENE,78,2.0,4.0,93,-99.99,,,-99.99,,2013-01-18 08:11:00,
2013-01-18 03:22:00,16.0,14.0,-100.00,ENE,78,2.0,4.0,93,-99.99,,,-99.99,,2013-01-18 08:22:00,
2013-01-18 03:32:00,14.0,12.0,-100.00,SSE,151,0.0,2.0,94,-99.99,,,-99.99,,2013-01-18 08:32:00,
2013-01-18 03:41:00,14.0,13.0,-100.00,ENE,75,1.0,3.0,93,-99.99,,,-99.99,,2013-01-18 08:41:00,
2013-01-18 03:42:00,14.0,12.0,-100.00,SSE,151,0.0,2.0,94,-99.99,,,-99.99,,2013-01-18 08:42:00,
2013-01-18 03:53:00,15.0,13.0,-100.00,ESE,104,2.0,3.0,94,-99.99,,,-99.99,,2013-01-18 08:53:00,
2013-01-18 04:02:00,15.0,13.0,-100.00,ESE,104,2.0,3.0,94,-99.99,,,-99.99,,2013-01-18 09:02:00,
2013-01-18 04:12:00,14.0,13.0,-100.00,ENE,75,1.0,3.0,93,-99.99,,,-99.99,,2013-01-18 09:12:00,
2013-01-18 04:22:00,14.0,13.0,-100.00,ENE,75,1.0,3.0,93,-99.99,,,-99.99,,2013-01-18 09:22:00,
2013-01-18 04:32:00,14.0,13.0,-100.00,ENE,75,1.0,3.0,93,-99.99,,,-99.99,,2013-01-18 09:32:00,
2013-01-18 04:52:00,13.0,11.0,-100.00,NE,37,0.0,2.0,93,-99.99,,,-99.99,,2013-01-18 09:52:00,
2013-01-18 05:02:00,13.0,11.0,-100.00,NE,37,0.0,2.0,93,-99.99,,,-99.99,,2013-01-18 10:02:00,
2013-01-18 05:12:00,13.0,12.0,-100.00,North,0,2.0,4.0,96,-99.99,,,-99.99,,2013-01-18 10:12:00,
2013-01-18 05:22:00,13.0,12.0,-100.00,North,0,2.0,4.0,96,-99.99,,,-99.99,,2013-01-18 10:22:00,
2013-01-18 05:32:00,13.0,12.0,-100.00,NNE,21,1.0,2.0,98,-99.99,,,-99.99,,2013-01-18 10:32:00,
2013-01-18 05:41:00,11.0,11.0,-100.00,SSE,164,1.0,3.0,97,-99.99,,,-99.99,,2013-01-18 10:41:00,
2013-01-18 05:42:00,13.0,12.0,-100.00,NNE,21,1.0,2.0,98,-99.99,,,-99.99,,2013-01-18 10:42:00,
2013-01-18 05:52:00,11.0,10.0,-100.00,South,185,1.0,2.0,96,-99.99,,,-99.99,,2013-01-18 10:52:00,
2013-01-18 06:02:00,11.0,10.0,-100.00,South,185,1.0,2.0,96,-99.99,,,-99.99,,2013-01-18 11:02:00,
2013-01-18 06:12:00,11.0,11.0,-100.00,SSE,164,1.0,3.0,97,-99.99,,,-99.99,,2013-01-18 11:12:00,
2013-01-18 06:22:00,11.0,11.0,-100.00,SSE,164,1.0,3.0,97,-99.99,,,-99.99,,2013-01-18 11:22:00,
2013-01-18 06:32:00,11.0,11.0,-100.00,SSE,164,1.0,3.0,97,-99.99,,,-99.99,,2013-01-18 11:32:00,
2013-01-18 06:53:00,10.0,9.0,-100.00,ESE,121,2.0,4.0,94,-99.99,,,-99.99,,2013-01-18 11:53:00,
2013-01-18 07:02:00,10.0,9.0,-100.00,ESE,121,2.0,4.0,94,-99.99,,,-99.99,,2013-01-18 12:02:00,
2013-01-18 07:12:00,10.0,9.0,-100.00,ESE,103,3.0,4.0,93,-99.99,,,-99.99,,2013-01-18 12:12:00,
2013-01-18 07:22:00,10.0,9.0,-100.00,ESE,103,3.0,4.0,93,-99.99,,,-99.99,,2013-01-18 12:22:00,
2013-01-18 07:32:00,10.0,9.0,-100.00,ESE,103,3.0,4.0,93,-99.99,,,-99.99,,2013-01-18 12:32:00,
2013-01-18 07:53:00,10.0,8.0,-100.00,SE,134,0.0,1.0,93,-99.99,,,-99.99,,2013-01-18 12:53:00,
2013-01-18 08:03:00,10.0,8.0,-100.00,SE,134,0.0,1.0,93,-99.99,,,-99.99,,2013-01-18 13:03:00,
2013-01-18 08:12:00,11.0,9.0,-100.00,SE,145,2.0,3.0,92,-99.99,,,-99.99,,2013-01-18 13:12:00,
2013-01-18 08:22:00,11.0,9.0,-100.00,SE,145,2.0,3.0,92,-99.99,,,-99.99,,2013-01-18 13:22:00,
2013-01-18 08:33:00,11.0,9.0,-100.00,SE,145,2.0,3.0,92,-99.99,,,-99.99,,2013-01-18 13:33:00,
2013-01-18 08:42:00,10.0,8.0,-100.00,SE,126,1.0,2.0,93,-99.99,,,-99.99,,2013-01-18 13:42:00,
2013-01-18 08:53:00,10.0,9.0,-100.00,East,97,0.0,2.0,93,-99.99,,,-99.99,,2013-01-18 13:53:00,
2013-01-18 09:03:00,10.0,9.0,-100.00,East,97,0.0,2.0,93,-99.99,,,-99.99,,2013-01-18 14:03:00,
2013-01-18 09:12:00,9.0,7.0,-100.00,SE,124,1.0,2.0,94,-99.99,,,-99.99,,2013-01-18 14:12:00,
2013-01-18 09:22:00,9.0,7.0,-100.00,SE,124,1.0,2.0,94,-99.99,,,-99.99,,2013-01-18 14:22:00,
2013-01-18 09:33:00,8.0,7.0,-100.00,SSE,147,1.0,2.0,93,-99.99,,,-99.99,,2013-01-18 14:33:00,
2013-01-18 09:42:00,8.0,7.0,-100.00,SSE,147,1.0,2.0,93,-99.99,,,-99.99,,2013-01-18 14:42:00,
2013-01-18 09:53:00,9.0,8.0,-100.00,ENE,62,0.0,2.0,94,-99.99,,,-99.99,,2013-01-18 14:53:00,
2013-01-18 10:02:00,9.0,8.0,-100.00,ENE,62,0.0,2.0,94,-99.99,,,-99.99,,2013-01-18 15:02:00,
2013-01-18 10:12:00,9.0,7.0,-100.00,ENE,64,0.0,2.0,92,-99.99,,,-99.99,,2013-01-18 15:12:00,
2013-01-18 10:33:00,9.0,7.0,-100.00,NE,35,0.0,2.0,93,-99.99,,,-99.99,,2013-01-18 15:33:00,
2013-01-18 10:42:00,9.0,7.0,-100.00,NE,35,0.0,2.0,93,-99.99,,,-99.99,,2013-01-18 15:42:00,
2013-01-18 10:53:00,9.0,8.0,-100.00,NNW,337,0.0,2.0,93,-99.99,,,-99.99,,2013-01-18 15:53:00,
2013-01-18 11:02:00,9.0,8.0,-100.00,NNW,337,0.0,2.0,93,-99.99,,,-99.99,,2013-01-18 16:02:00,
2013-01-18 11:12:00,7.0,5.0,-100.00,North,360,0.0,1.0,91,-99.99,,,-99.99,,2013-01-18 16:12:00,
2013-01-18 11:33:00,10.0,8.0,-100.00,West,270,0.0,1.0,93,-99.99,,,-99.99,,2013-01-18 16:33:00,
2013-01-18 11:42:00,10.0,8.0,-100.00,West,270,0.0,1.0,93,-99.99,,,-99.99,,2013-01-18 16:42:00,
2013-01-18 11:53:00,12.0,10.0,-100.00,SSW,210,0.0,2.0,92,-99.99,,,-99.99,,2013-01-18 16:53:00,
2013-01-18 12:02:00,12.0,10.0,-100.00,SSW,210,0.0,2.0,92,-99.99,,,-99.99,,2013-01-18 17:02:00,
2013-01-18 12:12:00,14.0,13.0,-100.00,South,188,1.0,2.0,93,-99.99,,,-99.99,,2013-01-18 17:12:00,
2013-01-18 12:22:00,14.0,13.0,-100.00,South,188,1.0,2.0,93,-99.99,,,-99.99,,2013-01-18 17:22:00,
2013-01-18 12:33:00,17.0,15.0,-100.00,SSW,213,0.0,2.0,91,-99.99,,,-99.99,,2013-01-18 17:33:00,
2013-01-18 12:42:00,17.0,15.0,-100.00,SSW,213,0.0,2.0,91,-99.99,,,-99.99,,2013-01-18 17:42:00,
2013-01-18 12:53:00,17.0,13.0,-100.00,North,7,1.0,4.0,84,-99.99,,,-99.99,,2013-01-18 17:53:00,
2013-01-18 13:03:00,17.0,13.0,-100.00,North,7,1.0,4.0,84,-99.99,,,-99.99,,2013-01-18 18:03:00,
2013-01-18 13:12:00,20.0,13.0,-100.00,NE,51,1.0,3.0,75,-99.99,,,-99.99,,2013-01-18 18:12:00,
2013-01-18 13:23:00,20.0,13.0,-100.00,NE,51,1.0,3.0,75,-99.99,,,-99.99,,2013-01-18 18:23:00,
2013-01-18 13:33:00,23.0,15.0,-100.00,ENE,64,1.0,4.0,73,-99.99,,,-99.99,,2013-01-18 18:33:00,
2013-01-18 13:43:00,23.0,15.0,-100.00,ENE,64,1.0,4.0,73,-99.99,,,-99.99,,2013-01-18 18:43:00,
2013-01-18 13:53:00,23.0,16.0,-100.00,SW,224,1.0,4.0,74,-99.99,,,-99.99,,2013-01-18 18:53:00,
2013-01-18 14:02:00,23.0,16.0,-100.00,SW,224,1.0,4.0,74,-99.99,,,-99.99,,2013-01-18 19:02:00,
2013-01-18 14:12:00,26.0,18.0,-100.00,South,186,1.0,3.0,73,-99.99,,,-99.99,,2013-01-18 19:12:00,
2013-01-18 14:22:00,26.0,18.0,-100.00,South,186,1.0,3.0,73,-99.99,,,-99.99,,2013-01-18 19:22:00,
2013-01-18 14:33:00,25.0,19.0,-100.00,South,189,2.0,4.0,77,-99.99,,,-99.99,,2013-01-18 19:33:00,
2013-01-18 14:41:00,28.0,20.0,-100.00,SSW,208,2.0,4.0,70,-99.99,,,-99.99,,2013-01-18 19:41:00,
2013-01-18 14:42:00,25.0,19.0,-100.00,South,189,2.0,4.0,77,-99.99,,,-99.99,,2013-01-18 19:42:00,
2013-01-18 14:53:00,28.0,19.0,-100.00,SSW,199,1.0,4.0,69,-99.99,,,-99.99,,2013-01-18 19:53:00,
2013-01-18 15:02:00,28.0,19.0,-100.00,SSW,199,1.0,4.0,69,-99.99,,,-99.99,,2013-01-18 20:02:00,
2013-01-18 15:12:00,28.0,20.0,-100.00,SSW,208,2.0,4.0,70,-99.99,,,-99.99,,2013-01-18 20:12:00,
2013-01-18 15:22:00,28.0,20.0,-100.00,SSW,208,2.0,4.0,70,-99.99,,,-99.99,,2013-01-18 20:22:00,
2013-01-18 15:33:00,28.0,20.0,-100.00,SSW,208,2.0,4.0,70,-99.99,,,-99.99,,2013-01-18 20:33:00,
2013-01-18 15:53:00,31.0,21.0,-100.00,SSE,160,2.0,3.0,65,-99.99,,,-99.99,,2013-01-18 20:53:00,
2013-01-18 16:03:00,31.0,21.0,-100.00,SSE,160,2.0,3.0,65,-99.99,,,-99.99,,2013-01-18 21:03:00,
2013-01-18 16:12:00,32.0,20.0,-100.00,South,172,1.0,4.0,60,-99.99,,,-99.99,,2013-01-18 21:12:00,
2013-01-18 16:22:00,32.0,20.0,-100.00,South,172,1.0,4.0,60,-99.99,,,-99.99,,2013-01-18 21:22:00,
2013-01-18 16:33:00,32.0,19.0,-100.00,South,186,2.0,5.0,58,-99.99,,,-99.99,,2013-01-18 21:33:00,
2013-01-18 16:41:00,34.0,20.0,-100.00,SE,140,1.0,4.0,55,-99.99,,,-99.99,,2013-01-18 21:41:00,
2013-01-18 16:42:00,32.0,19.0,-100.00,South,186,2.0,5.0,58,-99.99,,,-99.99,,2013-01-18 21:42:00,
2013-01-18 16:53:00,32.0,19.0,-100.00,SSE,164,3.0,5.0,57,-99.99,,,-99.99,,2013-01-18 21:53:00,
2013-01-18 17:02:00,32.0,19.0,-100.00,SSE,164,3.0,5.0,57,-99.99,,,-99.99,,2013-01-18 22:02:00,
2013-01-18 17:12:00,34.0,20.0,-100.00,SE,140,1.0,4.0,55,-99.99,,,-99.99,,2013-01-18 22:12:00,
2013-01-18 17:22:00,34.0,20.0,-100.00,SE,140,1.0,4.0,55,-99.99,,,-99.99,,2013-01-18 22:22:00,
2013-01-18 17:32:00,34.0,20.0,-100.00,SE,140,1.0,4.0,55,-99.99,,,-99.99,,2013-01-18 22:32:00,
2013-01-18 17:53:00,36.0,21.0,-100.00,WSW,244,2.0,5.0,54,-99.99,,,-99.99,,2013-01-18 22:53:00,
2013-01-18 18:02:00,36.0,21.0,-100.00,WSW,244,2.0,5.0,54,-99.99,,,-99.99,,2013-01-18 23:02:00,
2013-01-18 18:12:00,36.0,21.0,-100.00,NW,304,1.0,5.0,56,-99.99,,,-99.99,,2013-01-18 23:12:00,
2013-01-18 18:22:00,36.0,21.0,-100.00,NW,304,1.0,5.0,56,-99.99,,,-99.99,,2013-01-18 23:22:00,
2013-01-18 18:32:00,36.0,21.0,-100.00,WNW,285,1.0,4.0,53,-99.99,,,-99.99,,2013-01-18 23:32:00,
2013-01-18 18:42:00,36.0,21.0,-100.00,WNW,285,1.0,4.0,53,-99.99,,,-99.99,,2013-01-18 23:42:00,
2013-01-18 18:53:00,35.0,23.0,-100.00,WSW,240,2.0,4.0,61,-99.99,,,-99.99,,2013-01-18 23:53:00,
2013-01-18 19:02:00,35.0,23.0,-100.00,WSW,240,2.0,4.0,61,-99.99,,,-99.99,,2013-01-19 00:02:00,
2013-01-18 19:12:00,36.0,22.0,-100.00,SW,222,2.0,4.0,57,-99.99,,,-99.99,,2013-01-19 00:12:00,
2013-01-18 19:22:00,36.0,22.0,-100.00,SW,222,2.0,4.0,57,-99.99,,,-99.99,,2013-01-19 00:22:00,
2013-01-18 19:32:00,35.0,22.0,-100.00,SSW,206,3.0,5.0,58,-99.99,,,-99.99,,2013-01-19 00:32:00,
2013-01-18 19:42:00,35.0,22.0,-100.00,SSW,206,3.0,5.0,58,-99.99,,,-99.99,,2013-01-19 00:42:00,
2013-01-18 19:53:00,33.0,23.0,-100.00,SSW,196,3.0,4.0,67,-99.99,,,-99.99,,2013-01-19 00:53:00,
2013-01-18 20:02:00,33.0,23.0,-100.00,SSW,196,3.0,4.0,67,-99.99,,,-99.99,,2013-01-19 01:02:00,
2013-01-18 20:12:00,30.0,21.0,-100.00,SSW,205,2.0,4.0,67,-99.99,,,-99.99,,2013-01-19 01:12:00,
2013-01-18 20:22:00,30.0,21.0,-100.00,SSW,205,2.0,4.0,67,-99.99,,,-99.99,,2013-01-19 01:22:00,
2013-01-18 20:32:00,28.0,20.0,-100.00,SSW,199,2.0,4.0,69,-99.99,,,-99.99,,2013-01-19 01:32:00,
2013-01-18 20:42:00,28.0,20.0,-100.00,SSW,199,2.0,4.0,69,-99.99,,,-99.99,,2013-01-19 01:42:00,
2013-01-18 20:52:00,29.0,20.0,-100.00,SE,133,1.0,3.0,68,-99.99,,,-99.99,,2013-01-19 01:52:00,
2013-01-18 21:02:00,29.0,20.0,-100.00,SE,133,1.0,3.0,68,-99.99,,,-99.99,,2013-01-19 02:02:00,
2013-01-18 21:12:00,27.0,20.0,-100.00,SSW,195,0.0,2.0,74,-99.99,,,-99.99,,2013-01-19 02:12:00,
2013-01-18 21:22:00,27.0,20.0,-100.00,SSW,195,0.0,2.0,74,-99.99,,,-99.99,,2013-01-19 02:22:00,
2013-01-18 21:32:00,29.0,20.0,-100.00,North,360,1.0,4.0,69,-99.99,,,-99.99,,2013-01-19 02:32:00,
2013-01-18 21:41:00,23.0,18.0,-100.00,WNW,292,2.0,3.0,83,-99.99,,,-99.99,,2013-01-19 02:41:00,
2013-01-18 21:42:00,29.0,20.0,-100.00,North,360,1.0,4.0,69,-99.99,,,-99.99,,2013-01-19 02:42:00,
2013-01-18 21:53:00,25.0,19.0,-100.00,NW,309,2.0,4.0,78,-99.99,,,-99.99,,2013-01-19 02:53:00,
2013-01-18 22:02:00,25.0,19.0,-100.00,NW,309,2.0,4.0,78,-99.99,,,-99.99,,2013-01-19 03:02:00,
2013-01-18 22:12:00,23.0,18.0,-100.00,WNW,292,2.0,3.0,83,-99.99,,,-99.99,,2013-01-19 03:12:00,
2013-01-18 22:22:00,23.0,18.0,-100.00,WNW,292,2.0,3.0,83,-99.99,,,-99.99,,2013-01-19 03:22:00,
2013-01-18 22:32:00,23.0,18.0,-100.00,WNW,292,2.0,3.0,83,-99.99,,,-99.99,,2013-01-19 03:32:00,
2013-01-18 22:41:00,22.0,18.0,-100.00,NW,320,0.0,2.0,86,-99.99,,,-99.99,,2013-01-19 03:41:00,
2013-01-18 22:52:00,23.0,19.0,-100.00,WSW,258,0.0,2.0,85,-99.99,,,-99.99,,2013-01-19 03:52:00,
2013-01-18 23:02:00,23.0,19.0,-100.00,WSW,258,0.0,2.0,85,-99.99,,,-99.99,,2013-01-19 04:02:00,
2013-01-18 23:12:00,22.0,18.0,-100.00,NW,320,0.0,2.0,86,-99.99,,,-99.99,,2013-01-19 04:12:00,
2013-01-18 23:22:00,22.0,18.0,-100.00,NW,320,0.0,2.0,86,-99.99,,,-99.99,,2013-01-19 04:22:00,
2013-01-18 23:32:00,22.0,18.0,-100.00,NW,320,0.0,2.0,86,-99.99,,,-99.99,,2013-01-19 04:32:00,